This is the latest recevied weather packets stored in our database for station/object OE2ATN. If no packets are shown the sender has not sent any weather packets the latest 10 day(s).
| Time | Temp. | Humidity | Pressure | Rain* | Wind** | Luminosity | Snow |
|---|---|---|---|---|---|---|---|
| 1777788904 | 9.44° C | 73% | 1026.3 hPa | 0 mm | - | - | - |
| 1777788605 | 9.44° C | 73% | 1026.3 hPa | 0 mm | - | - | - |
| 1777788305 | 9.44° C | 73% | 1026.3 hPa | 0 mm | - | - | - |
| 1777788005 | 9.44° C | 73% | 1026.5 hPa | 0 mm | - | - | - |
| 1777787705 | 9.44° C | 73% | 1026.5 hPa | 0 mm | - | - | - |
| 1777787404 | 9.44° C | 72% | 1026.5 hPa | 0 mm | - | - | - |
| 1777787104 | 9.44° C | 74% | 1026.5 hPa | 0 mm | - | - | - |
| 1777786805 | 9.44° C | 74% | 1026.5 hPa | 0 mm | - | - | - |
| 1777786505 | 8.33° C | 75% | 1026.6 hPa | 0 mm | - | - | - |
| 1777786206 | 7.78° C | 75% | 1026.6 hPa | 0 mm | - | - | - |
| 1777785905 | 7.22° C | 75% | 1026.7 hPa | 0 mm | - | - | - |
| 1777785604 | 7.22° C | 74% | 1026.7 hPa | 0 mm | - | - | - |
| 1777785305 | 6.67° C | 69% | 1026.7 hPa | 0 mm | - | - | - |
| 1777785004 | 6.11° C | 70% | 1026.7 hPa | 0 mm | - | - | - |
| 1777784705 | 5.56° C | 67% | 1026.7 hPa | 0 mm | - | - | - |
| 1777784405 | 5° C | 66% | 1026.8 hPa | 0 mm | - | - | - |
| 1777784105 | 5° C | 67% | 1026.8 hPa | 0 mm | - | - | - |
| 1777783805 | 5° C | 68% | 1026.7 hPa | 0 mm | - | - | - |
| 1777783504 | 5° C | 69% | 1026.7 hPa | 0 mm | - | - | - |
| 1777783205 | 5° C | 69% | 1026.7 hPa | 0 mm | - | - | - |
| 1777782906 | 5° C | 68% | 1026.8 hPa | 0 mm | - | - | - |
| 1777782605 | 5° C | 67% | 1026.7 hPa | 0 mm | - | - | - |
| 1777782305 | 5° C | 70% | 1026.7 hPa | 0 mm | - | - | - |
| 1777782005 | 5° C | 72% | 1026.6 hPa | 0 mm | - | - | - |
| 1777781705 | 5° C | 70% | 1026.7 hPa | 0 mm | - | - | - |
* Rain latest hour (hover to see other rain measurements)
** Current wind speed in m/s (hover to see current wind gust speed)